User: anonymous   Login
Location: Unspecified
(0.0000°N, 0.0000°E)
Time: 19:57:22
(UTC+00:00)
Language:

Tansei-3 - Orbit

View from above orbital plane
View from above orbital plane
View from above satellite
View from above satellite

Ground track
Ground track

The orbit data is extracted from the following two-line orbital elements,

1 09841U 77012A   18016.85274566 -.00000036  00000-0 -37608-5 0  9998
2 09841  65.7594  67.6909 1724649  51.0753 323.1674 10.73813247603912
Epoch (UTC): 16 January 2018 20:27:57
Eccentricity: 0.1724649
inclination: 65.7594°
perigee height: 804 km
apogee height: 3797 km
right ascension of ascending node: 67.6909°
argument of perigee: 51.0753°
revolutions per day: 10.73813247
mean anomaly at epoch: 323.1674°
orbit number at epoch: 60391

The dashed part of the orbit path shows where the satellite is in the earth's shadow,  

DLR